Regional Weather Roundup
Issued by NWS

Home | Current Version | Previous Version | Text Only | Print | Product List | Glossary Off
Versions: 1 2 3 4 5 6 7 8 9 10 11 12 13 14 15 16 17 18 19 20 21 22 23 24 25 26 27 28 29 30 31 32 33 34 35 36 37 38 39 40 41 42 43 44 45 46 47 48 49 50

000
ASUS43 KLSX 292359
RWRMO

WEATHER SUMMARY FOR MISSOURI
NATIONAL WEATHER SERVICE SPRINGFIELD MO
700 PM CDT MON JUN 29 2015

NOTE: "FAIR" INDICATES FEW OR NO CLOUDS BELOW 12,000 FEET WITH NO
       SIGNIFICANT WEATHER AND/OR OBSTRUCTIONS TO VISIBILITY.
       CURRENT SKY AND/OR WEATHER CONDITIONS ARE NOT AVAILABLE FOR
       CHILLICOTHE AND FARMINGTON.

MOZ001>031-035>038-043-044-053-054-300100-
...NORTHERN AND WESTERN MISSOURI...

CITY           SKY/WX    TMP DP  RH WIND       PRES   REMARKS
KANSAS CTY INT CLOUDY    82  65  56 NW5       29.90F
6HR MIN TEMP:  82; 6HR MAX TEMP:  86;

KANSAS C DTWN  SUNNY     86  63  45 N7        29.88F
6HR MIN TEMP:  85; 6HR MAX TEMP:  88;

LEE`S SUMMIT   SUNNY     82  64  54 NW5       29.90F
6HR MIN TEMP:  82; 6HR MAX TEMP:  86;

ST JOSEPH      SUNNY     84  64  50 NW5       29.89S
6HR MIN TEMP:  84; 6HR MAX TEMP:  88;

CHILLICOTHE      N/A     82  68  62 CALM      29.88S
6HR MIN TEMP:  82; 6HR MAX TEMP:  87;

KIRKSVILLE     SUNNY     78  67  68 NW5       29.88R
6HR MIN TEMP:  78; 6HR MAX TEMP:  85;


$$
MOZ066>068-077>081-088>096-101>105-300100-
...SOUTHWEST MISSOURI...

CITY           SKY/WX    TMP DP  RH WIND       PRES   REMARKS
SPRINGFIELD    SUNNY     82  63  52 NW7       29.92F
6HR MIN TEMP:  82; 6HR MAX TEMP:  86;

JOPLIN         SUNNY     84  65  52 N7        29.93S
6HR MIN TEMP:  84; 6HR MAX TEMP:  87;


$$
MOZ032>034-039>042-045>050-055>058-069>072-300100-
...CENTRAL MISSOURI...

CITY           SKY/WX    TMP DP  RH WIND       PRES   REMARKS
COLUMBIA       SUNNY     81  66  60 W6        29.88S
6HR MIN TEMP:  81; 6HR MAX TEMP:  85;

JEFFERSON CITY SUNNY     84  64  50 NW6       29.86S
6HR MIN TEMP:  82; 6HR MAX TEMP:  86;

ROLLA          SUNNY     80  67  64 W6        29.88S
6HR MIN TEMP:  79; 6HR MAX TEMP:  84;

SEDALIA        SUNNY     82  66  58 W7        29.89F
6HR MIN TEMP:  82; 6HR MAX TEMP:  86;

OSAGE BEACH    SUNNY     81  66  61 W5        29.89F

$$
MOZ051-052-059>065-300100-
...EAST CENTRAL MISSOURI...

CITY           SKY/WX    TMP DP  RH WIND       PRES   REMARKS
ST LOUIS INTL  PTSUNNY   84  66  54 W3        29.85S
6HR MIN TEMP:  81; 6HR MAX TEMP:  85;

SPIRIT OF STL  PTSUNNY   75  70  84 CALM      29.84S
6HR MIN TEMP:  73; 6HR MAX TEMP:  85; 6HR PCP:  0.05;

ST CHARLES     LGT RAIN  79  70  74 N5        29.83F
6HR MIN TEMP:  77; 6HR MAX TEMP:  82; 6HR PCP: TRACE;


$$
MOZ072>076-082>087-097>100-106>115-300100-
...SOUTH CENTRAL AND SOUTHEAST MISSOURI...

CITY           SKY/WX    TMP DP  RH WIND       PRES   REMARKS
CAPE GIRARDEAU SUNNY     85  65  51 NW9       29.84R
6HR MIN TEMP:  85; 6HR MAX TEMP:  89;

FARMINGTON     SUNNY     81  64  57 NW5       29.91S
6HR MIN TEMP:  81; 6HR MAX TEMP:  84;

POPLAR BLUFF   SUNNY     87  65  47 N8        29.83F
6HR MIN TEMP:  86; 6HR MAX TEMP:  90;

WEST PLAINS    SUNNY     83  65  54 NW5       29.92S
6HR MIN TEMP:  83; 6HR MAX TEMP:  86;


$$


USA.gov is the U.S. government's official web portal to all federal, state and local government web resources and services.